Starlink 31317

operational
NORAD ID: 58931 Int'l Des: 2024-027 Owner: SPXS Country: US Constellation: starlink
LEOCIRCULAR

Starlink 31317について

説明を読み込み中...

リアルタイム位置

3D地球を読み込み中...

次回通過

高度履歴

Altitude vs Time

uPlot chart will show altitude changes over time

軌道要素

1 58931U 24027A 25353.24629503 .00000158 00000-0 17463-4 0 9999
2 58931 53.1619 323.1658 0001421 91.5110 268.6053 15.30186001104859
Epoch: Dec 19, 2025 • Age: 10 hours

現在のステータス

高度 486.5 km
速度 7.62 km/s
衛星直下点 -33.79°S, 161.8°W
打ち上げ日 Feb 10, 2024
運用期間 1.8 years
タイプ internet

技術仕様

分類 Payload
質量 730.00 kg
乾燥質量 700.00 kg
総質量 730.00 kg
長さ 0.30 m
直径 4.10 m
スパン 29.00 m
形状 Box + pan
製造者 SPXS
バスタイプ Starlink V2M
フェーズステータス In Orbit
所有者/国 SPXS/US

大規模コンステレーション

Loading constellations...